Time,TemperatureF,DewpointF,PressureIn,WindDirection,WindDirectionDegrees,WindSpeedMPH,WindSpeedGustMPH,Humidity,HourlyPrecipIn,Conditions,Clouds,dailyrainin,SoftwareType,DateUTC
2013-06-23 00:04:00,72.9,67.7,30.13,SW,225,1.6,4.5,84,0.00,,,0.00,pywws,2013-06-22 22:04:00,
2013-06-23 00:05:00,71.8,67.0,30.13,SE,135,2.2,3.8,85,0.00,,,0.00,pywws,2013-06-22 22:05:00,
2013-06-23 00:10:00,72.0,67.2,30.13,SSE,158,4.5,6.0,85,0.00,,,0.00,pywws,2013-06-22 22:10:00,
2013-06-23 00:15:00,71.2,66.8,30.12,SE,135,2.2,4.5,86,0.00,,,0.00,pywws,2013-06-22 22:15:00,
2013-06-23 00:20:00,71.1,66.7,30.13,East,90,3.1,5.4,86,0.00,,,0.00,pywws,2013-06-22 22:20:00,
2013-06-23 00:25:00,72.0,67.5,30.13,SE,135,1.6,3.8,86,0.00,,,0.00,pywws,2013-06-22 22:25:00,
2013-06-23 00:30:00,71.4,67.0,30.13,SE,135,3.1,5.4,86,0.00,,,0.00,pywws,2013-06-22 22:30:00,
2013-06-23 00:35:00,71.1,66.7,30.13,SE,135,2.2,4.5,86,0.00,,,0.00,pywws,2013-06-22 22:35:00,
2013-06-23 00:40:00,70.7,66.3,30.13,SSE,158,2.2,6.0,86,0.00,,,0.00,pywws,2013-06-22 22:40:00,
2013-06-23 00:45:00,70.9,66.8,30.13,SE,135,1.6,3.1,87,0.00,,,0.00,pywws,2013-06-22 22:45:00,
2013-06-23 00:50:00,70.7,66.6,30.13,SE,135,3.1,3.8,87,0.00,,,0.00,pywws,2013-06-22 22:50:00,
2013-06-23 01:04:00,72.1,68.0,30.13,South,180,3.8,6.0,87,0.00,,,0.00,pywws,2013-06-22 23:04:00,
2013-06-23 01:05:00,71.2,67.2,30.13,South,180,1.6,3.8,87,0.00,,,0.00,pywws,2013-06-22 23:05:00,
2013-06-23 01:10:00,70.9,66.8,30.13,East,90,2.2,3.8,87,0.00,,,0.00,pywws,2013-06-22 23:10:00,
2013-06-23 01:15:00,71.2,67.2,30.13,SE,135,0.7,2.2,87,0.00,,,0.00,pywws,2013-06-22 23:15:00,
2013-06-23 01:20:00,70.2,66.1,30.13,SE,135,1.6,3.1,87,0.00,,,0.00,pywws,2013-06-22 23:20:00,
2013-06-23 01:25:00,70.9,66.8,30.12,West,270,1.6,4.5,87,0.00,,,0.00,pywws,2013-06-22 23:25:00,
2013-06-23 01:30:00,70.3,66.3,30.13,SE,135,0.7,3.1,87,0.00,,,0.00,pywws,2013-06-22 23:30:00,
2013-06-23 01:35:00,70.5,66.5,30.12,West,270,0.7,3.1,87,0.00,,,0.00,pywws,2013-06-22 23:35:00,
2013-06-23 01:40:00,71.2,67.2,30.12,West,270,0.0,0.7,87,0.00,,,0.00,pywws,2013-06-22 23:40:00,
2013-06-23 01:45:00,70.3,66.3,30.12,NW,315,0.7,1.6,87,0.00,,,0.00,pywws,2013-06-22 23:45:00,
2013-06-23 01:50:00,70.3,66.6,30.12,South,180,1.6,3.8,88,0.00,,,0.00,pywws,2013-06-22 23:50:00,
2013-06-23 02:04:00,70.9,67.5,30.11,South,180,0.7,2.2,89,0.00,,,0.00,pywws,2013-06-23 00:04:00,
2013-06-23 02:05:00,71.1,67.6,30.11,SE,135,0.7,2.2,89,0.00,,,0.00,pywws,2013-06-23 00:05:00,
2013-06-23 02:10:00,70.2,67.1,30.11,SE,135,0.7,2.2,90,0.00,,,0.00,pywws,2013-06-23 00:10:00,
2013-06-23 02:15:00,70.3,66.9,30.11,South,180,0.7,2.2,89,0.00,,,0.00,pywws,2013-06-23 00:15:00,
2013-06-23 02:20:00,70.5,67.1,30.11,SE,135,0.7,2.2,89,0.00,,,0.00,pywws,2013-06-23 00:20:00,
2013-06-23 02:25:00,71.4,68.3,30.11,NNE,22,2.2,4.5,90,0.00,,,0.00,pywws,2013-06-23 00:25:00,
2013-06-23 02:30:00,70.0,66.9,30.11,NW,315,0.0,1.6,90,0.00,,,0.00,pywws,2013-06-23 00:30:00,
2013-06-23 02:35:00,70.0,66.9,30.11,North,0,1.6,3.1,90,0.00,,,0.00,pywws,2013-06-23 00:35:00,
2013-06-23 02:40:00,70.9,67.5,30.11,NW,315,0.0,1.6,89,0.00,,,0.00,pywws,2013-06-23 00:40:00,
2013-06-23 02:45:00,70.2,66.8,30.11,West,270,0.0,0.7,89,0.00,,,0.00,pywws,2013-06-23 00:45:00,
2013-06-23 02:50:00,70.2,66.8,30.11,NW,315,0.0,1.6,89,0.00,,,0.00,pywws,2013-06-23 00:50:00,
2013-06-23 03:04:00,70.7,67.3,30.11,South,180,0.0,0.7,89,0.00,,,0.00,pywws,2013-06-23 01:04:00,
2013-06-23 03:05:00,69.1,65.7,30.11,West,270,0.0,1.6,89,0.00,,,0.00,pywws,2013-06-23 01:05:00,
2013-06-23 03:10:00,69.4,66.4,30.11,NW,315,0.0,0.0,90,0.00,,,0.00,pywws,2013-06-23 01:10:00,
2013-06-23 03:15:00,69.6,66.6,30.11,West,270,0.0,0.7,90,0.00,,,0.00,pywws,2013-06-23 01:15:00,
2013-06-23 03:20:00,69.6,66.6,30.11,NW,315,0.0,0.0,90,0.00,,,0.00,pywws,2013-06-23 01:20:00,
2013-06-23 03:25:00,69.8,66.7,30.11,North,0,0.0,0.0,90,0.00,,,0.00,pywws,2013-06-23 01:25:00,
2013-06-23 03:30:00,68.5,65.8,30.11,NE,45,0.7,1.6,91,0.00,,,0.00,pywws,2013-06-23 01:30:00,
2013-06-23 03:35:00,69.8,67.0,30.10,North,0,0.0,1.6,91,0.00,,,0.00,pywws,2013-06-23 01:35:00,
2013-06-23 03:40:00,69.4,66.7,30.11,East,90,2.2,3.8,91,0.00,,,0.00,pywws,2013-06-23 01:40:00,
2013-06-23 03:45:00,69.3,66.8,30.11,East,90,1.6,3.8,92,0.00,,,0.00,pywws,2013-06-23 01:45:00,
2013-06-23 03:50:00,69.1,66.7,30.11,SE,135,0.7,3.1,92,0.00,,,0.00,pywws,2013-06-23 01:50:00,
2013-06-23 04:03:00,69.6,67.2,30.10,East,90,1.6,2.2,92,0.00,,,0.00,pywws,2013-06-23 02:03:00,
2013-06-23 04:05:00,68.9,66.5,30.10,East,90,1.6,3.1,92,0.00,,,0.00,pywws,2013-06-23 02:05:00,
2013-06-23 04:10:00,68.5,66.1,30.11,SW,225,0.0,2.2,92,0.00,,,0.00,pywws,2013-06-23 02:10:00,
2013-06-23 04:15:00,68.4,65.9,30.10,NNE,22,0.0,1.6,92,0.00,,,0.00,pywws,2013-06-23 02:15:00,
2013-06-23 04:20:00,68.7,66.3,30.11,SE,135,0.7,2.2,92,0.00,,,0.00,pywws,2013-06-23 02:20:00,
2013-06-23 04:25:00,68.7,66.3,30.11,East,90,1.6,3.1,92,0.00,,,0.00,pywws,2013-06-23 02:25:00,
2013-06-23 04:30:00,68.9,66.2,30.11,East,90,0.7,1.6,91,0.00,,,0.00,pywws,2013-06-23 02:30:00,
2013-06-23 04:35:00,69.1,66.3,30.11,SE,135,0.0,1.6,91,0.00,,,0.00,pywws,2013-06-23 02:35:00,
2013-06-23 04:40:00,68.9,66.2,30.11,North,0,0.7,2.2,91,0.00,,,0.00,pywws,2013-06-23 02:40:00,
2013-06-23 04:45:00,68.5,65.5,30.11,East,90,1.6,2.2,90,0.00,,,0.00,pywws,2013-06-23 02:45:00,
2013-06-23 04:50:00,68.5,65.8,30.11,SE,135,2.2,3.8,91,0.00,,,0.00,pywws,2013-06-23 02:50:00,
2013-06-23 05:04:00,68.2,65.4,30.10,NE,45,0.7,2.2,91,0.00,,,0.00,pywws,2013-06-23 03:04:00,
2013-06-23 05:05:00,67.6,64.9,30.11,SE,135,2.2,3.8,91,0.00,,,0.00,pywws,2013-06-23 03:05:00,
2013-06-23 05:10:00,68.2,65.8,30.11,SE,135,3.1,5.4,92,0.00,,,0.00,pywws,2013-06-23 03:10:00,
2013-06-23 05:15:00,68.4,65.9,30.11,SE,135,3.1,4.5,92,0.00,,,0.00,pywws,2013-06-23 03:15:00,
2013-06-23 05:20:00,67.8,65.1,30.11,East,90,3.8,5.4,91,0.00,,,0.00,pywws,2013-06-23 03:20:00,
2013-06-23 05:25:00,68.0,65.3,30.11,SE,135,1.6,3.8,91,0.00,,,0.00,pywws,2013-06-23 03:25:00,
2013-06-23 05:30:00,68.2,65.4,30.11,East,90,1.6,3.8,91,0.00,,,0.00,pywws,2013-06-23 03:30:00,
2013-06-23 05:35:00,66.7,64.0,30.11,East,90,2.2,3.1,91,0.00,,,0.00,pywws,2013-06-23 03:35:00,
2013-06-23 05:40:00,67.1,64.4,30.12,SE,135,0.7,2.2,91,0.00,,,0.00,pywws,2013-06-23 03:40:00,
2013-06-23 05:45:00,67.8,65.1,30.12,ENE,68,1.6,3.8,91,0.00,,,0.00,pywws,2013-06-23 03:45:00,
2013-06-23 05:50:00,67.5,64.4,30.12,SE,135,3.1,4.5,90,0.00,,,0.00,pywws,2013-06-23 03:50:00,
2013-06-23 05:55:00,66.2,63.2,30.12,East,90,1.6,3.1,90,0.00,,,0.00,pywws,2013-06-23 03:55:00,
2013-06-23 06:00:00,67.5,64.4,30.12,East,90,2.2,3.1,90,0.00,,,0.00,pywws,2013-06-23 04:00:00,
2013-06-23 06:05:00,67.6,64.6,30.12,East,90,0.7,2.2,90,0.00,,,0.00,pywws,2013-06-23 04:05:00,
2013-06-23 06:10:00,66.9,63.9,30.12,East,90,2.2,5.4,90,0.00,,,0.00,pywws,2013-06-23 04:10:00,
2013-06-23 06:15:00,67.6,64.6,30.12,East,90,1.6,3.1,90,0.00,,,0.00,pywws,2013-06-23 04:15:00,
2013-06-23 06:20:00,66.7,63.4,30.12,East,90,1.6,2.2,89,0.00,,,0.00,pywws,2013-06-23 04:20:00,
2013-06-23 06:25:00,67.3,63.9,30.12,East,90,1.6,2.2,89,0.00,,,0.00,pywws,2013-06-23 04:25:00,
2013-06-23 06:30:00,68.0,64.6,30.12,West,270,0.0,1.6,89,0.00,,,0.00,pywws,2013-06-23 04:30:00,
2013-06-23 06:35:00,70.3,66.3,30.12,SE,135,0.0,1.6,87,0.00,,,0.00,pywws,2013-06-23 04:35:00,
2013-06-23 06:40:00,72.1,66.3,30.12,NW,315,0.0,1.6,82,0.00,,,0.00,pywws,2013-06-23 04:40:00,
2013-06-23 06:45:00,73.2,66.3,30.12,SE,135,0.7,1.6,79,0.00,,,0.00,pywws,2013-06-23 04:45:00,
2013-06-23 06:50:00,73.9,66.3,30.12,NE,45,0.7,1.6,77,0.00,,,0.00,pywws,2013-06-23 04:50:00,
2013-06-23 06:55:00,74.5,65.2,30.12,NE,45,0.7,2.2,73,0.00,,,0.00,pywws,2013-06-23 04:55:00,
2013-06-23 07:05:00,75.6,65.9,30.12,North,0,0.0,1.6,72,0.00,,,0.00,pywws,2013-06-23 05:05:00,
2013-06-23 07:07:00,75.2,65.5,30.12,North,0,0.7,2.2,72,0.00,,,0.00,pywws,2013-06-23 05:07:00,
2013-06-23 07:10:00,77.0,66.9,30.12,North,0,0.0,0.7,71,0.00,,,0.00,pywws,2013-06-23 05:10:00,
2013-06-23 07:15:00,77.7,66.7,30.12,NW,315,0.7,2.2,69,0.00,,,0.00,pywws,2013-06-23 05:15:00,
2013-06-23 07:20:00,77.5,67.0,30.11,NW,315,0.7,3.1,70,0.00,,,0.00,pywws,2013-06-23 05:20:00,
2013-06-23 07:25:00,77.2,67.8,30.12,West,270,0.0,2.2,73,0.00,,,0.00,pywws,2013-06-23 05:25:00,
2013-06-23 07:30:00,78.4,68.2,30.12,NW,315,2.2,4.5,71,0.00,,,0.00,pywws,2013-06-23 05:30:00,
2013-06-23 07:35:00,77.9,68.5,30.12,North,0,3.1,6.0,73,0.00,,,0.00,pywws,2013-06-23 05:35:00,
2013-06-23 07:40:00,76.6,68.1,30.12,North,0,1.6,3.8,75,0.00,,,0.00,pywws,2013-06-23 05:40:00,
2013-06-23 07:45:00,75.9,67.4,30.11,NW,315,2.2,5.4,75,0.00,,,0.00,pywws,2013-06-23 05:45:00,
2013-06-23 07:50:00,76.5,68.7,30.11,NW,315,3.8,6.0,77,0.00,,,0.00,pywws,2013-06-23 05:50:00,
2013-06-23 08:04:00,75.7,68.0,30.11,North,0,2.2,3.8,77,0.00,,,0.00,pywws,2013-06-23 06:04:00,
2013-06-23 08:05:00,77.0,69.2,30.11,NW,315,3.1,5.4,77,0.00,,,0.00,pywws,2013-06-23 06:05:00,
2013-06-23 08:10:00,76.3,68.5,30.11,North,0,2.2,4.5,77,0.00,,,0.00,pywws,2013-06-23 06:10:00,
2013-06-23 08:15:00,75.4,68.0,30.11,West,270,3.1,6.0,78,0.00,,,0.00,pywws,2013-06-23 06:15:00,
2013-06-23 08:20:00,77.4,69.2,30.11,NW,315,3.8,6.0,76,0.00,,,0.00,pywws,2013-06-23 06:20:00,
2013-06-23 08:25:00,77.5,69.4,30.11,NW,315,2.2,4.5,76,0.00,,,0.00,pywws,2013-06-23 06:25:00,
2013-06-23 08:30:00,77.9,69.3,30.11,West,270,3.8,6.0,75,0.00,,,0.00,pywws,2013-06-23 06:30:00,
2013-06-23 08:35:00,78.3,69.7,30.11,NW,315,3.1,6.0,75,0.00,,,0.00,pywws,2013-06-23 06:35:00,
2013-06-23 08:40:00,76.6,68.1,30.11,North,0,2.2,3.8,75,0.00,,,0.00,pywws,2013-06-23 06:40:00,
2013-06-23 08:45:00,78.3,68.5,30.11,North,0,2.2,3.8,72,0.00,,,0.00,pywws,2013-06-23 06:45:00,
2013-06-23 08:50:00,79.3,69.9,30.11,NW,315,0.0,2.2,73,0.00,,,0.00,pywws,2013-06-23 06:50:00,
2013-06-23 09:04:00,77.9,68.1,30.11,WNW,292,3.8,6.9,72,0.00,,,0.00,pywws,2013-06-23 07:04:00,
2013-06-23 09:05:00,79.3,68.3,30.11,West,270,3.1,6.0,69,0.00,,,0.00,pywws,2013-06-23 07:05:00,
2013-06-23 09:10:00,78.3,67.7,30.11,NE,45,2.2,4.5,70,0.00,,,0.00,pywws,2013-06-23 07:10:00,
2013-06-23 09:15:00,79.2,68.5,30.11,NW,315,1.6,3.1,70,0.00,,,0.00,pywws,2013-06-23 07:15:00,
2013-06-23 09:20:00,78.6,67.6,30.11,NE,45,0.7,3.8,69,0.00,,,0.00,pywws,2013-06-23 07:20:00,
2013-06-23 09:25:00,80.4,68.4,30.10,NE,45,0.7,1.6,67,0.00,,,0.00,pywws,2013-06-23 07:25:00,
2013-06-23 09:30:00,79.7,67.8,30.10,NW,315,2.2,5.4,67,0.00,,,0.00,pywws,2013-06-23 07:30:00,
2013-06-23 09:35:00,79.5,67.1,30.10,NW,315,3.8,6.9,66,0.00,,,0.00,pywws,2013-06-23 07:35:00,
2013-06-23 09:40:00,79.9,67.5,30.10,East,90,0.7,3.1,66,0.00,,,0.00,pywws,2013-06-23 07:40:00,
2013-06-23 09:45:00,81.1,68.2,30.10,NW,315,2.2,3.8,65,0.00,,,0.00,pywws,2013-06-23 07:45:00,
2013-06-23 09:50:00,81.3,67.5,30.10,WNW,292,3.1,4.5,63,0.00,,,0.00,pywws,2013-06-23 07:50:00,
2013-06-23 10:04:00,81.1,66.9,30.10,North,0,3.1,5.4,62,0.00,,,0.00,pywws,2013-06-23 08:04:00,
2013-06-23 10:05:00,82.8,67.4,30.10,NW,315,0.7,2.2,60,0.00,,,0.00,pywws,2013-06-23 08:05:00,
2013-06-23 10:10:00,83.1,66.3,30.10,NW,315,3.1,6.9,57,0.00,,,0.00,pywws,2013-06-23 08:10:00,
2013-06-23 10:15:00,83.1,66.8,30.10,NW,315,3.1,4.5,58,0.00,,,0.00,pywws,2013-06-23 08:15:00,
2013-06-23 10:20:00,84.6,67.6,30.09,East,90,0.7,3.1,57,0.00,,,0.00,pywws,2013-06-23 08:20:00,
2013-06-23 10:25:00,84.9,67.4,30.09,NE,45,0.7,2.2,56,0.00,,,0.00,pywws,2013-06-23 08:25:00,
2013-06-23 10:30:00,84.9,65.8,30.09,NE,45,0.7,2.2,53,0.00,,,0.00,pywws,2013-06-23 08:30:00,
2013-06-23 10:35:00,85.6,67.1,30.09,North,0,2.2,4.5,54,0.00,,,0.00,pywws,2013-06-23 08:35:00,
2013-06-23 10:40:00,83.7,65.8,30.09,NW,315,0.7,3.8,55,0.00,,,0.00,pywws,2013-06-23 08:40:00,
2013-06-23 10:45:00,86.4,67.2,30.09,SW,225,0.0,1.6,53,0.00,,,0.00,pywws,2013-06-23 08:45:00,
2013-06-23 10:50:00,88.9,66.0,30.09,NW,315,2.2,5.4,47,0.00,,,0.00,pywws,2013-06-23 08:50:00,
2013-06-23 11:04:00,87.4,65.9,30.09,North,0,2.2,3.8,49,0.00,,,0.00,pywws,2013-06-23 09:04:00,
2013-06-23 11:05:00,84.6,62.7,30.09,West,270,1.6,3.1,48,0.00,,,0.00,pywws,2013-06-23 09:05:00,
2013-06-23 11:10:00,84.9,64.2,30.09,NW,315,0.7,2.2,50,0.00,,,0.00,pywws,2013-06-23 09:10:00,
2013-06-23 11:15:00,87.1,65.6,30.09,SW,225,0.7,2.2,49,0.00,,,0.00,pywws,2013-06-23 09:15:00,
2013-06-23 11:20:00,90.0,65.7,30.09,NW,315,1.6,3.8,45,0.00,,,0.00,pywws,2013-06-23 09:20:00,
2013-06-23 11:25:00,90.5,65.6,30.08,South,180,1.6,3.8,44,0.00,,,0.00,pywws,2013-06-23 09:25:00,
2013-06-23 11:30:00,90.7,64.4,30.09,South,180,1.6,3.1,42,0.00,,,0.00,pywws,2013-06-23 09:30:00,
2013-06-23 11:35:00,90.0,63.7,30.09,SW,225,2.2,3.8,42,0.00,,,0.00,pywws,2013-06-23 09:35:00,
2013-06-23 11:40:00,91.8,64.0,30.08,South,180,3.8,6.0,40,0.00,,,0.00,pywws,2013-06-23 09:40:00,
2013-06-23 11:45:00,90.3,63.4,30.08,West,270,2.2,3.8,41,0.00,,,0.00,pywws,2013-06-23 09:45:00,
2013-06-23 11:50:00,88.7,63.9,30.08,NW,315,1.6,3.8,44,0.00,,,0.00,pywws,2013-06-23 09:50:00,
2013-06-23 12:04:00,88.7,64.6,30.08,NW,315,2.2,4.5,45,0.00,,,0.00,pywws,2013-06-23 10:04:00,
2013-06-23 12:05:00,89.4,65.2,30.07,West,270,4.5,7.6,45,0.00,,,0.00,pywws,2013-06-23 10:05:00,
2013-06-23 12:10:00,88.2,64.7,30.07,NW,315,3.1,6.0,46,0.00,,,0.00,pywws,2013-06-23 10:10:00,
2013-06-23 12:15:00,88.0,65.2,30.07,SW,225,0.7,4.5,47,0.00,,,0.00,pywws,2013-06-23 10:15:00,
2013-06-23 12:20:00,88.3,64.9,30.06,West,270,3.8,6.9,46,0.00,,,0.00,pywws,2013-06-23 10:20:00,
2013-06-23 12:25:00,87.8,65.0,30.06,West,270,0.7,3.8,47,0.00,,,0.00,pywws,2013-06-23 10:25:00,
2013-06-23 12:30:00,87.8,65.0,30.06,West,270,0.7,3.8,47,0.00,,,0.00,pywws,2013-06-23 10:30:00,
2013-06-23 12:35:00,89.4,65.9,30.06,NW,315,0.7,3.1,46,0.00,,,0.00,pywws,2013-06-23 10:35:00,
2013-06-23 12:40:00,90.3,63.4,30.06,West,270,2.2,5.4,41,0.00,,,0.00,pywws,2013-06-23 10:40:00,
2013-06-23 12:45:00,91.4,64.3,30.05,West,270,2.2,4.5,41,0.00,,,0.00,pywws,2013-06-23 10:45:00,
2013-06-23 12:50:00,90.0,63.7,30.06,SSW,202,1.6,3.1,42,0.00,,,0.00,pywws,2013-06-23 10:50:00,
2013-06-23 13:03:00,88.5,62.5,30.05,West,270,3.1,5.4,42,0.00,,,0.00,pywws,2013-06-23 11:03:00,
2013-06-23 13:05:00,90.9,63.2,30.05,South,180,8.3,13.0,40,0.00,,,0.00,pywws,2013-06-23 11:05:00,
2013-06-23 13:10:00,89.2,63.1,30.05,North,0,0.7,3.8,42,0.00,,,0.00,pywws,2013-06-23 11:10:00,
2013-06-23 13:15:00,90.0,63.1,30.05,North,0,1.6,5.4,41,0.00,,,0.00,pywws,2013-06-23 11:15:00,
2013-06-23 13:20:00,88.0,62.6,30.05,NW,315,1.6,3.8,43,0.00,,,0.00,pywws,2013-06-23 11:20:00,
2013-06-23 13:25:00,88.9,62.8,30.05,West,270,1.6,3.8,42,0.00,,,0.00,pywws,2013-06-23 11:25:00,
2013-06-23 13:30:00,90.7,63.0,30.05,North,0,2.2,3.8,40,0.00,,,0.00,pywws,2013-06-23 11:30:00,
2013-06-23 13:35:00,87.6,62.3,30.05,West,270,0.7,2.2,43,0.00,,,0.00,pywws,2013-06-23 11:35:00,
2013-06-23 13:40:00,89.6,60.6,30.05,West,270,1.6,3.1,38,0.00,,,0.00,pywws,2013-06-23 11:40:00,
2013-06-23 13:45:00,90.7,60.8,30.05,SE,135,2.2,5.4,37,0.00,,,0.00,pywws,2013-06-23 11:45:00,
2013-06-23 13:50:00,89.2,65.1,30.05,WSW,248,6.0,10.7,45,0.00,,,0.00,pywws,2013-06-23 11:50:00,
2013-06-23 14:03:00,88.5,65.7,30.05,SW,225,3.1,6.9,47,0.00,,,0.00,pywws,2013-06-23 12:03:00,
2013-06-23 14:05:00,90.3,66.1,30.05,NW,315,3.1,8.3,45,0.00,,,0.00,pywws,2013-06-23 12:05:00,
2013-06-23 14:10:00,90.3,65.4,30.05,NE,45,3.1,6.0,44,0.00,,,0.00,pywws,2013-06-23 12:10:00,
2013-06-23 14:15:00,89.8,64.9,30.05,SW,225,3.1,6.9,44,0.00,,,0.00,pywws,2013-06-23 12:15:00,
2013-06-23 14:20:00,89.4,64.6,30.05,SE,135,5.4,9.8,44,0.00,,,0.00,pywws,2013-06-23 12:20:00,
2013-06-23 14:25:00,89.1,64.9,30.05,South,180,3.1,5.4,45,0.00,,,0.00,pywws,2013-06-23 12:25:00,
2013-06-23 14:30:00,89.8,65.6,30.05,SW,225,3.8,7.6,45,0.00,,,0.00,pywws,2013-06-23 12:30:00,
2013-06-23 14:35:00,89.6,65.4,30.05,South,180,3.8,6.0,45,0.00,,,0.00,pywws,2013-06-23 12:35:00,
2013-06-23 14:40:00,89.4,65.2,30.05,SW,225,4.5,8.3,45,0.00,,,0.00,pywws,2013-06-23 12:40:00,
2013-06-23 14:45:00,89.1,65.5,30.05,South,180,2.2,3.8,46,0.00,,,0.00,pywws,2013-06-23 12:45:00,
2013-06-23 14:50:00,88.0,65.2,30.05,SE,135,4.5,11.4,47,0.00,,,0.00,pywws,2013-06-23 12:50:00,
2013-06-23 15:04:00,88.2,65.3,30.05,West,270,3.1,12.1,47,0.00,,,0.00,pywws,2013-06-23 13:04:00,
2013-06-23 15:05:00,88.0,65.8,30.04,NW,315,2.2,6.9,48,0.00,,,0.00,pywws,2013-06-23 13:05:00,
2013-06-23 15:10:00,88.0,66.4,30.04,NE,45,3.8,9.8,49,0.00,,,0.00,pywws,2013-06-23 13:10:00,
2013-06-23 15:15:00,88.0,65.2,30.04,NW,315,3.1,6.0,47,0.00,,,0.00,pywws,2013-06-23 13:15:00,
2013-06-23 15:20:00,88.3,66.1,30.04,NNW,338,3.1,6.0,48,0.00,,,0.00,pywws,2013-06-23 13:20:00,
2013-06-23 15:25:00,87.8,65.6,30.04,SW,225,3.1,6.0,48,0.00,,,0.00,pywws,2013-06-23 13:25:00,
2013-06-23 15:30:00,88.7,65.8,30.03,SW,225,2.2,5.4,47,0.00,,,0.00,pywws,2013-06-23 13:30:00,
2013-06-23 15:35:00,87.6,64.9,30.03,NW,315,2.2,4.5,47,0.00,,,0.00,pywws,2013-06-23 13:35:00,
2013-06-23 15:40:00,89.1,64.9,30.03,SE,135,3.8,6.9,45,0.00,,,0.00,pywws,2013-06-23 13:40:00,
2013-06-23 15:45:00,88.5,64.4,30.03,SE,135,3.8,6.9,45,0.00,,,0.00,pywws,2013-06-23 13:45:00,
2013-06-23 15:50:00,88.2,64.1,30.03,SW,225,2.2,6.0,45,0.00,,,0.00,pywws,2013-06-23 13:50:00,
2013-06-23 15:55:00,88.7,63.9,30.03,West,270,2.2,4.5,44,0.00,,,0.00,pywws,2013-06-23 13:55:00,
2013-06-23 16:05:00,89.8,64.9,30.04,SW,225,3.1,6.0,44,0.00,,,0.00,pywws,2013-06-23 14:05:00,
2013-06-23 16:06:00,88.3,63.6,30.04,North,0,2.2,7.6,44,0.00,,,0.00,pywws,2013-06-23 14:06:00,
2013-06-23 16:10:00,89.1,64.3,30.03,East,90,3.1,5.4,44,0.00,,,0.00,pywws,2013-06-23 14:10:00,
2013-06-23 16:15:00,90.0,65.1,30.03,NW,315,3.8,6.0,44,0.00,,,0.00,pywws,2013-06-23 14:15:00,
2013-06-23 16:20:00,88.5,64.4,30.03,NE,45,3.1,5.4,45,0.00,,,0.00,pywws,2013-06-23 14:20:00,
2013-06-23 16:25:00,89.8,65.6,30.03,South,180,3.8,9.2,45,0.00,,,0.00,pywws,2013-06-23 14:25:00,
2013-06-23 16:30:00,88.7,64.6,30.03,West,270,2.2,4.5,45,0.00,,,0.00,pywws,2013-06-23 14:30:00,
2013-06-23 16:35:00,88.2,64.1,30.03,South,180,2.2,6.0,45,0.00,,,0.00,pywws,2013-06-23 14:35:00,
2013-06-23 16:40:00,87.4,64.1,30.03,South,180,4.5,6.9,46,0.00,,,0.00,pywws,2013-06-23 14:40:00,
2013-06-23 16:45:00,86.9,64.2,30.03,SW,225,3.1,6.9,47,0.00,,,0.00,pywws,2013-06-23 14:45:00,
2013-06-23 16:50:00,87.1,64.4,30.03,NW,315,2.2,5.4,47,0.00,,,0.00,pywws,2013-06-23 14:50:00,
2013-06-23 16:55:00,87.6,64.9,30.03,South,180,4.5,9.2,47,0.00,,,0.00,pywws,2013-06-23 14:55:00,
2013-06-23 17:00:00,86.9,64.8,30.03,SW,225,3.8,6.9,48,0.00,,,0.00,pywws,2013-06-23 15:00:00,
2013-06-23 17:05:00,86.0,64.0,30.03,SW,225,3.8,7.6,48,0.00,,,0.00,pywws,2013-06-23 15:05:00,
2013-06-23 17:10:00,84.4,63.1,30.03,SW,225,3.8,8.3,49,0.00,,,0.00,pywws,2013-06-23 15:10:00,
2013-06-23 17:15:00,85.1,64.3,30.03,West,270,3.8,6.9,50,0.00,,,0.00,pywws,2013-06-23 15:15:00,
2013-06-23 17:20:00,83.8,63.2,30.03,SE,135,3.1,6.0,50,0.00,,,0.00,pywws,2013-06-23 15:20:00,
2013-06-23 17:25:00,84.0,62.8,30.03,SW,225,3.8,7.6,49,0.00,,,0.00,pywws,2013-06-23 15:25:00,
2013-06-23 17:30:00,83.5,62.9,30.03,West,270,2.2,4.5,50,0.00,,,0.00,pywws,2013-06-23 15:30:00,
2013-06-23 17:35:00,83.5,63.4,30.03,North,0,3.1,6.9,51,0.00,,,0.00,pywws,2013-06-23 15:35:00,
2013-06-23 17:40:00,83.1,63.1,30.03,South,180,2.2,3.8,51,0.00,,,0.00,pywws,2013-06-23 15:40:00,
2013-06-23 17:45:00,82.6,64.2,30.03,South,180,3.1,5.4,54,0.00,,,0.00,pywws,2013-06-23 15:45:00,
2013-06-23 17:50:00,83.3,65.4,30.03,West,270,3.8,11.4,55,0.00,,,0.00,pywws,2013-06-23 15:50:00,
2013-06-23 17:55:00,82.8,65.4,30.03,East,90,3.1,7.6,56,0.00,,,0.00,pywws,2013-06-23 15:55:00,
2013-06-23 18:00:00,82.0,64.2,30.03,East,90,3.1,5.4,55,0.00,,,0.00,pywws,2013-06-23 16:00:00,
2013-06-23 18:05:00,82.9,65.6,30.03,SW,225,3.8,6.9,56,0.00,,,0.00,pywws,2013-06-23 16:05:00,
2013-06-23 18:10:00,82.0,65.3,30.03,NW,315,4.5,9.2,57,0.00,,,0.00,pywws,2013-06-23 16:10:00,
2013-06-23 18:15:00,81.1,64.4,30.03,SE,135,1.6,4.5,57,0.00,,,0.00,pywws,2013-06-23 16:15:00,
2013-06-23 18:20:00,81.3,65.6,30.03,SW,225,3.1,6.9,59,0.00,,,0.00,pywws,2013-06-23 16:20:00,
2013-06-23 18:25:00,82.0,67.2,30.03,SW,225,3.1,7.6,61,0.00,,,0.00,pywws,2013-06-23 16:25:00,
2013-06-23 18:30:00,81.5,65.8,30.03,NW,315,3.8,6.9,59,0.00,,,0.00,pywws,2013-06-23 16:30:00,
2013-06-23 18:35:00,81.5,65.3,30.03,NW,315,3.1,5.4,58,0.00,,,0.00,pywws,2013-06-23 16:35:00,
2013-06-23 18:40:00,81.7,65.4,30.03,North,-999,3.1,6.0,58,0.00,,,0.00,pywws,2013-06-23 16:40:00,
2013-06-23 18:45:00,80.8,65.1,30.03,South,180,2.2,4.5,59,0.00,,,0.00,pywws,2013-06-23 16:45:00,
2013-06-23 18:50:00,81.0,64.3,30.03,SW,225,3.8,7.6,57,0.00,,,0.00,pywws,2013-06-23 16:50:00,
2013-06-23 18:55:00,81.0,63.2,30.04,NNE,22,3.1,6.0,55,0.00,,,0.00,pywws,2013-06-23 16:55:00,
2013-06-23 19:00:00,81.0,65.7,30.04,SW,225,4.5,9.2,60,0.00,,,0.00,pywws,2013-06-23 17:00:00,
2013-06-23 19:05:00,80.4,65.2,30.04,NW,315,3.1,7.6,60,0.00,,,0.00,pywws,2013-06-23 17:05:00,
2013-06-23 19:10:00,80.2,64.6,30.04,SW,225,1.6,4.5,59,0.00,,,0.00,pywws,2013-06-23 17:10:00,
2013-06-23 19:15:00,80.4,64.3,30.04,SE,135,3.1,6.0,58,0.00,,,0.00,pywws,2013-06-23 17:15:00,
2013-06-23 19:20:00,80.6,64.9,30.04,SE,135,1.6,3.8,59,0.00,,,0.00,pywws,2013-06-23 17:20:00,
2013-06-23 19:25:00,79.9,63.8,30.04,WSW,248,3.1,6.0,58,0.00,,,0.00,pywws,2013-06-23 17:25:00,
2013-06-23 19:30:00,80.8,63.1,30.04,NE,45,1.6,4.5,55,0.00,,,0.00,pywws,2013-06-23 17:30:00,
2013-06-23 19:35:00,80.4,63.8,30.04,West,270,2.2,4.5,57,0.00,,,0.00,pywws,2013-06-23 17:35:00,
2013-06-23 19:40:00,80.6,63.9,30.04,West,270,2.2,5.4,57,0.00,,,0.00,pywws,2013-06-23 17:40:00,
2013-06-23 19:45:00,80.4,64.3,30.04,SW,225,1.6,3.8,58,0.00,,,0.00,pywws,2013-06-23 17:45:00,
2013-06-23 19:50:00,80.8,64.6,30.04,SW,225,1.6,4.5,58,0.00,,,0.00,pywws,2013-06-23 17:50:00,
2013-06-23 19:55:00,79.9,63.8,30.04,SE,135,1.6,4.5,58,0.00,,,0.00,pywws,2013-06-23 17:55:00,
2013-06-23 20:00:00,79.3,63.3,30.04,West,270,0.7,3.1,58,0.00,,,0.00,pywws,2013-06-23 18:00:00,
2013-06-23 20:05:00,79.2,62.6,30.04,SW,225,0.7,3.1,57,0.00,,,0.00,pywws,2013-06-23 18:05:00,
2013-06-23 20:10:00,79.7,62.6,30.04,SW,225,2.2,3.8,56,0.00,,,0.00,pywws,2013-06-23 18:10:00,
2013-06-23 20:15:00,79.2,62.1,30.04,South,180,1.6,3.8,56,0.00,,,0.00,pywws,2013-06-23 18:15:00,
2013-06-23 20:20:00,79.0,62.4,30.04,SSW,202,1.6,3.8,57,0.00,,,0.00,pywws,2013-06-23 18:20:00,
2013-06-23 20:25:00,78.3,61.8,30.04,West,270,0.7,3.1,57,0.00,,,0.00,pywws,2013-06-23 18:25:00,
2013-06-23 20:30:00,77.4,61.9,30.04,NE,45,0.7,3.8,59,0.00,,,0.00,pywws,2013-06-23 18:30:00,
2013-06-23 20:35:00,76.6,62.2,30.04,South,180,2.2,4.5,61,0.00,,,0.00,pywws,2013-06-23 18:35:00,
2013-06-23 20:40:00,76.1,62.1,30.04,SSE,158,1.6,3.1,62,0.00,,,0.00,pywws,2013-06-23 18:40:00,
2013-06-23 20:45:00,75.7,62.2,30.05,South,180,3.8,6.0,63,0.00,,,0.00,pywws,2013-06-23 18:45:00,
2013-06-23 20:50:00,74.3,61.8,30.05,South,180,1.6,6.9,65,0.00,,,0.00,pywws,2013-06-23 18:50:00,
2013-06-23 21:04:00,77.2,65.8,30.05,West,270,0.7,1.6,68,0.00,,,0.00,pywws,2013-06-23 19:04:00,
2013-06-23 21:05:00,73.4,63.8,30.06,South,180,1.6,4.5,72,0.00,,,0.00,pywws,2013-06-23 19:05:00,
2013-06-23 21:10:00,73.4,64.6,30.06,SW,225,1.6,4.5,74,0.00,,,0.00,pywws,2013-06-23 19:10:00,
2013-06-23 21:15:00,73.2,64.8,30.06,South,180,1.6,4.5,75,0.00,,,0.00,pywws,2013-06-23 19:15:00,
2013-06-23 21:20:00,73.4,65.7,30.06,SE,135,2.2,3.8,77,0.00,,,0.00,pywws,2013-06-23 19:20:00,
2013-06-23 21:25:00,73.2,66.3,30.06,SW,225,3.8,6.9,79,0.00,,,0.00,pywws,2013-06-23 19:25:00,
2013-06-23 21:30:00,72.5,66.0,30.06,SW,225,1.6,3.8,80,0.00,,,0.00,pywws,2013-06-23 19:30:00,
2013-06-23 21:35:00,72.0,66.2,30.07,South,180,2.2,4.5,82,0.00,,,0.00,pywws,2013-06-23 19:35:00,
2013-06-23 21:40:00,71.4,66.0,30.07,South,180,6.0,10.7,83,0.00,,,0.00,pywws,2013-06-23 19:40:00,
2013-06-23 21:45:00,71.1,66.0,30.08,South,180,2.2,4.5,84,0.00,,,0.00,pywws,2013-06-23 19:45:00,
2013-06-23 21:50:00,70.9,65.5,30.07,ENE,68,3.1,5.4,83,0.00,,,0.00,pywws,2013-06-23 19:50:00,
2013-06-23 22:03:00,71.6,66.2,30.08,SE,135,2.2,5.4,83,0.00,,,0.00,pywws,2013-06-23 20:03:00,
2013-06-23 22:05:00,70.5,64.4,30.09,SSW,202,5.4,9.2,81,0.00,,,0.00,pywws,2013-06-23 20:05:00,
2013-06-23 22:10:00,70.7,64.6,30.09,SE,135,3.8,6.0,81,0.00,,,0.00,pywws,2013-06-23 20:10:00,
2013-06-23 22:15:00,70.5,64.4,30.09,East,90,3.1,6.0,81,0.00,,,0.00,pywws,2013-06-23 20:15:00,
2013-06-23 22:20:00,70.3,64.2,30.09,East,90,3.8,8.3,81,0.00,,,0.00,pywws,2013-06-23 20:20:00,
2013-06-23 22:25:00,70.5,64.4,30.09,ESE,112,4.5,6.9,81,0.00,,,0.00,pywws,2013-06-23 20:25:00,
2013-06-23 22:30:00,71.1,64.9,30.09,NNE,22,0.7,3.1,81,0.00,,,0.00,pywws,2013-06-23 20:30:00,
2013-06-23 22:35:00,70.2,64.0,30.09,East,90,1.6,3.8,81,0.00,,,0.00,pywws,2013-06-23 20:35:00,
2013-06-23 22:40:00,70.3,64.2,30.09,SE,135,3.8,5.4,81,0.00,,,0.00,pywws,2013-06-23 20:40:00,
2013-06-23 22:45:00,70.5,64.8,30.09,South,180,1.6,3.1,82,0.00,,,0.00,pywws,2013-06-23 20:45:00,
2013-06-23 22:50:00,69.6,63.9,30.09,South,180,3.8,6.0,82,0.00,,,0.00,pywws,2013-06-23 20:50:00,
2013-06-23 23:04:00,70.0,64.6,30.09,SE,135,2.2,4.5,83,0.00,,,0.00,pywws,2013-06-23 21:04:00,
2013-06-23 23:05:00,70.0,64.6,30.09,SE,135,3.1,3.8,83,0.00,,,0.00,pywws,2013-06-23 21:05:00,
2013-06-23 23:10:00,70.5,65.4,30.09,South,180,2.2,4.5,84,0.00,,,0.00,pywws,2013-06-23 21:10:00,
2013-06-23 23:15:00,70.3,65.3,30.09,South,180,2.2,3.8,84,0.00,,,0.00,pywws,2013-06-23 21:15:00,
2013-06-23 23:20:00,70.2,65.4,30.09,WSW,248,1.6,3.1,85,0.00,,,0.00,pywws,2013-06-23 21:20:00,
2013-06-23 23:25:00,69.4,64.7,30.09,SW,225,0.7,2.2,85,0.00,,,0.00,pywws,2013-06-23 21:25:00,
2013-06-23 23:30:00,70.0,65.3,30.09,NW,315,0.0,0.7,85,0.00,,,0.00,pywws,2013-06-23 21:30:00,
2013-06-23 23:35:00,70.5,66.1,30.09,South,180,1.6,3.8,86,0.00,,,0.00,pywws,2013-06-23 21:35:00,
2013-06-23 23:40:00,70.0,65.6,30.09,South,180,1.6,3.1,86,0.00,,,0.00,pywws,2013-06-23 21:40:00,
2013-06-23 23:45:00,69.6,65.2,30.09,South,180,1.6,3.8,86,0.00,,,0.00,pywws,2013-06-23 21:45:00,
2013-06-23 23:50:00,69.8,65.7,30.09,SW,225,0.0,0.7,87,0.00,,,0.00,pywws,2013-06-23 21:50:00,